Sacramento, CA
on Monday, February 18, 2013

Monday
Previous Day Next Day
Daily Summary
 ActualAverageRecord
Temperature
Mean Temperature - -  
Max Temperature 57 °F 61 °F 74 °F (1977)
Min Temperature 36 °F 42 °F 29 °F (1956)
Degree Days
Heating Degree Days 18    
Cooling Degree Days 0    
Moisture
Dew Point 38 °F   
Average Humidity 74    
Maximum Humidity 92    
Minimum Humidity 55    
Precipitation
Precipitation 0.00 in 0.13 in 1.81 in (1958)
Month to date precipitation 0.02 2.25  
Year to date precipitation 0.98 5.89  
Wind
Wind Speed 7 mph   
Max Wind Speed 20 mph   
Max Gust Speed 25 mph   
Visibility 10 miles   
Events     

Key: T is trace of precipitation, MM is missing value
Source: NWS Daily Summary
Time(PST)TemperatureDew PointHumidity Pressure Visibility Wind DirectionWind SpeedGust SpeedPrecipitationEvents Conditions
12:53 AM 39.0 °F 35.1 °F 86% 30.00 in 10.0 miles Calm Calm - N/A   Clear
1:53 AM 39.0 °F 35.1 °F 86% 30.00 in 10.0 miles Calm Calm - N/A   Clear
2:53 AM 39.0 °F 35.1 °F 86% 29.99 in 10.0 miles SE 3.5 mph - N/A   Clear
3:53 AM 39.2 °F 35.6 °F 87% 29.98 in 10.0 miles ESE 3.5 mph - N/A   Clear
4:53 AM 39.0 °F 35.1 °F 86% 29.98 in 10.0 miles SSE 4.6 mph - N/A   Clear
5:53 AM 39.2 °F 35.6 °F 87% 29.98 in 9.0 miles South 3.5 mph - N/A   Clear
6:53 AM 39.9 °F 37.0 °F 89% 29.99 in 9.0 miles South 3.5 mph - N/A   Clear
7:53 AM 46.0 °F 41.0 °F 83% 30.01 in 9.0 miles SSW 5.8 mph - N/A   Clear
8:53 AM 48.9 °F 43.0 °F 80% 30.01 in 10.0 miles SW 11.5 mph - N/A   Clear
9:53 AM 51.1 °F 42.1 °F 71% 30.02 in 10.0 miles SSW 9.2 mph - N/A   Clear
10:53 AM 53.1 °F 43.0 °F 69% 30.02 in 10.0 miles SW 8.1 mph - N/A   Clear
11:53 AM 57.0 °F 43.0 °F 59% 30.00 in 10.0 miles SSW 10.4 mph 17.3 mph N/A   Clear
12:53 PM 55.9 °F 42.1 °F 60% 29.98 in 10.0 miles SW 17.3 mph 23.0 mph N/A   Clear
1:53 PM 55.0 °F 39.9 °F 57% 29.95 in 10.0 miles SW 15.0 mph 20.7 mph N/A   Clear
2:53 PM 53.1 °F 39.0 °F 59% 29.94 in 10.0 miles SW 13.8 mph 23.0 mph N/A   Clear
3:53 PM 53.1 °F 37.9 °F 57% 29.93 in 10.0 miles SW 17.3 mph 24.2 mph N/A   Clear
4:53 PM 52.0 °F 37.9 °F 59% 29.92 in 10.0 miles SW 13.8 mph 19.6 mph N/A   Clear
5:53 PM 50.0 °F 37.0 °F 61% 29.93 in 10.0 miles SW 16.1 mph 23.0 mph N/A   Partly Cloudy
6:53 PM 48.9 °F 37.0 °F 64% 29.93 in 10.0 miles SSW 11.5 mph 24.2 mph N/A   Clear
7:53 PM 48.0 °F 37.0 °F 66% 29.93 in 10.0 miles South 12.7 mph 18.4 mph N/A   Clear
8:53 PM 48.0 °F 37.9 °F 68% 29.93 in 10.0 miles South 10.4 mph 18.4 mph N/A   Mostly Cloudy
9:53 PM 48.0 °F 39.0 °F 71% 29.94 in 10.0 miles SSW 15.0 mph 21.9 mph N/A   Mostly Cloudy
10:53 PM 46.0 °F 37.9 °F 73% 29.93 in 10.0 miles South 12.7 mph 24.2 mph N/A   Mostly Cloudy
11:53 PM 46.4 °F 35.6 °F 66% 29.93 in 10.0 miles South 9.2 mph 18.4 mph N/A   Mostly Cloudy

Astronomy

Sunrise: 06:52 AM (PST) Moon Rise: 11:39 AM (PST) 2 / 18
Sunset: 05:47 PM (PST) Moon Set: 01:34 AM (PST) 2 / 18
Moon Phase
Feb. 18 Feb. 25 Mar. 04 Mar. 11 Mar. 19


Powered by Weather Underground, Inc.